Station WYCM6 - 8747437 - Bay Waveland Yacht Club, MS Image indicating link to RSS feed of recent meteorological observations for station WYCM6


Conditions at WYCM6 as of
(10:18 pm CDT on 04/18/2024)
0318 GMT on 04/19/2024:
     

Click on the graph icon in the table below to see a time series plot of the last five days of that observation.

5-day plot - Wind Direction Wind Direction (WDIR): S ( 170 deg true )
5-day plot - Wind Speed Wind Speed (WSPD): 8.9 kts
5-day plot - Wind Gust Wind Gust (GST): 12.0 kts
5-day plot - Atmospheric Pressure Atmospheric Pressure (PRES):30.03 in
5-day plot - Air Temperature Air Temperature (ATMP): 81.1 °F
5-day plot - Water Temperature Water Temperature (WTMP): 75.9 °F
5-day plot - Wind Speed at 10 Meters Wind Speed at 10 meters (WSPD10M): 9.7 kts
5-day plot - Wind Speed at 20 Meters Wind Speed at 20 meters (WSPD20M): 9.7 kts
5-day plot -  Wind Speed, Wind Gust and Atmospheric Pressure Combined plot of Wind Speed, Gust, and Air Pressure
NOS Water Level Observation Network Water Level
Previous observations
TIME
(CDT)
5-day plot - Wind Direction
WDIR
 
5-day plot - Wind Speed
WSPD
kts
5-day plot - Wind Gust
GST
kts
5-day plot - Wave Height
WVHT
ft
5-day plot - Dominant Wave Period
DPD
sec
5-day plot - Average Wave Period
APD
sec
5-day plot - Mean Wave Direction
MWD
 
5-day plot - Atmospheric Pressure
PRES
in
5-day plot - Pressure Tendency
PTDY
in
5-day plot - Air Temperature
ATMP
°F
5-day plot - Water Temperature
WTMP
°F
5-day plot - Dew Point
DEWP
°F
5-day plot - Salinity
SAL
psu
5-day plot - Visibility
VIS
nmi
5-day plot - Tide (above MLLW)
TIDE
ft
2024-04-18 10:12 pm S 6.0 13.0----30.03- 81.1 75.9----
2024-04-18 10:06 pm S 9.9 15.0----30.02- 81.1 75.9----
2024-04-18 10:00 pm S 13.0 15.9----30.01-0.01 81.1 75.9----
2024-04-18 09:54 pmSSE 13.0 15.9----30.01- 81.1 76.1----
2024-04-18 09:48 pmSSE 13.0 14.0----30.01- 81.1 76.1----
2024-04-18 09:42 pmSSE 12.0 13.0----30.02- 81.3 76.1----
2024-04-18 09:36 pmSSE 8.9 11.1----30.03- 81.3 76.1----
2024-04-18 09:30 pmSSE 8.0 11.1----30.03- 81.3 76.1----
2024-04-18 09:24 pmSSE 8.9 11.1----30.03- 81.3 76.1----
2024-04-18 09:18 pm S 7.0 8.9----30.04- 81.3 76.1----
2024-04-18 09:12 pmSSE 8.0 12.0----30.04- 81.5 76.1----
2024-04-18 09:06 pmSSE 8.9 13.0----30.03- 81.5 76.1----
2024-04-18 09:00 pmSSE 9.9 12.0----30.03+0.00 81.3 76.1----
2024-04-18 08:54 pmSSE 9.9 11.1----30.03- 81.5 76.1----
2024-04-18 08:48 pmSSE 8.9 12.0----30.03- 81.5 76.1----
2024-04-18 08:42 pmSSE 9.9 12.0----30.03- 81.5 76.3----
2024-04-18 08:36 pmSSE 11.1 13.0----30.02- 81.5 76.3----
2024-04-18 08:30 pm SE 9.9 11.1----30.02- 81.5 76.3----
2024-04-18 08:24 pm SE 9.9 12.0----30.02- 81.5 76.3----
2024-04-18 08:18 pm SE 9.9 11.1----30.02- 81.5 76.1----
2024-04-18 08:12 pm SE 8.0 11.1----30.02- 81.5 76.1----
2024-04-18 08:06 pm SE 8.9 9.9----30.02- 81.5 76.1----
2024-04-18 08:00 pm SE 8.0 8.9----30.02+0.07 81.5 76.1----
2024-04-18 07:54 pm SE 7.0 8.9----30.02- 81.3 76.1----
2024-04-18 07:48 pm SE 8.0 8.9----30.02- 81.3 76.1----
2024-04-18 07:42 pmESE 8.0 8.9----30.02- 81.3 76.1----
2024-04-18 07:36 pmESE 7.0 8.0----30.02- 81.3 76.1----
2024-04-18 07:30 pmESE 7.0 8.0----30.02- 81.5 76.1----
2024-04-18 07:24 pm SE 6.0 7.0----30.03- 81.3 76.1----
2024-04-18 07:18 pm SE 6.0 7.0----30.02- 81.3 75.9----
2024-04-18 07:12 pm SE 7.0 7.0----30.03- 81.3 75.9----
2024-04-18 07:06 pm SE 7.0 8.0----30.02- 81.3 75.9----
2024-04-18 07:00 pmSSE 6.0 7.0----30.02+0.02 81.5 75.9----
2024-04-18 06:54 pmSSE 6.0 7.0----30.03- 81.5 76.1----
2024-04-18 06:48 pmSSE 5.1 6.0----30.03- 81.7 76.1----
2024-04-18 06:42 pmSSE 5.1 6.0----30.03- 81.7 75.9----
2024-04-18 06:36 pmSSE 6.0 6.0----30.03- 81.7 75.9----
2024-04-18 06:30 pm S 5.1 6.0----30.03- 81.9 75.9----
2024-04-18 06:24 pmSSE 5.1 6.0----30.03- 82.0 76.1----
2024-04-18 06:18 pmSSE 5.1 6.0----30.03- 82.0 76.1----
2024-04-18 06:00 pm S 2.9 5.1----30.03+0.00 82.6 76.1----
2024-04-18 05:54 pmSSW 4.1 7.0----30.03- 82.9 76.1----
2024-04-18 05:48 pmSSW 2.9 7.0----30.03- 83.1 76.3----
2024-04-18 05:42 pm S 2.9 7.0----30.02- 82.9 76.5----
2024-04-18 05:36 pmSSW 1.9 5.1----30.01- 82.6 76.5----
2024-04-18 05:30 pm S 4.1 8.9----30.01- 82.4 76.3----
2024-04-18 05:24 pm S 4.1 8.0----30.00- 82.2 76.3----
2024-04-18 05:18 pmSSE 8.9 15.0----29.98- 81.9 75.9----
2024-04-18 05:12 pmSSE 15.9 19.0----29.96- 81.5 75.7----
2024-04-18 05:06 pmSSE 15.9 19.0----29.96- 81.3 75.6----
2024-04-18 05:00 pmSSE 15.9 18.1----29.95-0.09- 75.4----
2024-04-18 04:54 pmSSE 15.0 18.1----29.96-- 75.4----
2024-04-18 04:48 pmSSE 14.0 15.9----29.96- 81.5 75.4----
2024-04-18 04:42 pm SE 14.0 15.9----29.97- 81.3 75.4----
2024-04-18 04:36 pm SE 12.0 13.0----29.97- 81.5 75.4----
2024-04-18 04:30 pm SE 8.0 9.9----29.99- 81.5 75.4----
2024-04-18 04:24 pm SE 8.0 11.1----29.99- 81.7 75.4----
2024-04-18 04:18 pm SE 8.0 12.0----29.99- 81.5 75.4----
2024-04-18 04:12 pmSSE 8.9 11.1----30.00- 81.5 75.4----
2024-04-18 04:06 pmSSE 11.1 13.0----30.00- 81.5 75.4----
2024-04-18 04:00 pmSSE 8.9 12.0----30.01-0.04 81.5 75.2----
2024-04-18 03:54 pmSSE 8.0 8.9----30.01- 81.5 75.2----
2024-04-18 03:48 pmSSE 6.0 8.0----30.01- 81.5 75.2----
2024-04-18 03:42 pmSSE 6.0 7.0----30.01- 81.5 75.2----
2024-04-18 03:36 pm SE 6.0 8.0----30.01- 81.5 75.2----
2024-04-18 03:30 pm SE 7.0 8.0----30.02- 81.5 75.2----
2024-04-18 03:24 pmSSE 7.0 8.0----30.02- 81.3 75.2----
2024-04-18 03:18 pmSSE 7.0 7.0----30.02- 81.3 75.4----
2024-04-18 03:12 pmSSE 6.0 8.0----30.03- 81.5 75.4----
2024-04-18 03:06 pmSSE 6.0 8.0----30.03- 81.5 75.4----
2024-04-18 03:00 pmSSE 7.0 8.9----30.03-0.01 81.5 75.4----
2024-04-18 02:54 pm S 7.0 8.9----30.04- 82.0 75.4----
2024-04-18 02:48 pmSSE 7.0 8.0----30.04- 81.9 75.4----
2024-04-18 02:42 pmSSE 7.0 8.9----30.04- 81.9 75.4----
2024-04-18 02:36 pm S 5.1 8.0----30.04- 81.9 75.4----
2024-04-18 02:30 pmSSE 6.0 8.9----30.04- 81.7 75.4----
2024-04-18 02:24 pmSSE 6.0 8.9----30.04- 81.7 75.4----
2024-04-18 02:18 pmSSE 7.0 8.9----30.03- 81.5 75.4----
2024-04-18 02:12 pmSSE 8.0 9.9----30.03- 81.5 75.4----
2024-04-18 02:06 pmSSE 8.0 8.9----30.04- 81.7 75.4----
2024-04-18 02:00 pmSSE 8.0 8.9----30.04-0.03 81.5 75.4----
2024-04-18 01:54 pmSSE 8.9 8.9----30.03- 81.5 75.4----
2024-04-18 01:48 pmSSE 8.0 8.9----30.04- 81.7 75.4----
2024-04-18 01:42 pmSSE 8.0 9.9----30.04- 81.5 75.4----
2024-04-18 01:36 pmSSE 6.0 8.9----30.04- 81.7 75.2----
2024-04-18 01:30 pmSSE 8.0 9.9----30.04- 81.5 75.2----
2024-04-18 01:24 pmSSE 7.0 9.9----30.04- 81.5 75.2----
2024-04-18 01:18 pmSSE 8.0 9.9----30.05- 81.5 75.2----
2024-04-18 01:12 pm S 7.0 8.9----30.05- 81.9 75.2----
2024-04-18 01:06 pm S 8.0 9.9----30.05- 81.7 75.2----
2024-04-18 01:00 pmSSE 8.0 11.1----30.05+0.03 81.5 75.0----
2024-04-18 12:54 pm S 8.0 11.1----30.05- 82.0 75.0----
2024-04-18 12:48 pm S 8.9 13.0----30.05- 81.9 75.0----
2024-04-18 12:42 pmSSE 9.9 13.0----30.05- 81.5 75.0----
2024-04-18 12:36 pmSSE 9.9 12.0----30.04- 81.3 75.0----
2024-04-18 12:30 pm S 8.9 13.0----30.04- 81.5 75.0----
2024-04-18 12:24 pmSSE 11.1 13.0----30.04- 81.3 75.0----
2024-04-18 12:18 pm S 8.9 12.0----30.05- 81.9 75.0----
2024-04-18 12:12 pm S 8.0 12.0----30.05- 81.7 75.0----
2024-04-18 12:06 pm S 8.0 13.0----30.05- 81.9 75.0----
2024-04-18 12:00 pm S 9.9 15.0----30.05+0.02 81.9 75.0----
2024-04-18 11:54 am S 9.9 14.0----30.05- 81.9 75.0----
2024-04-18 11:48 am S 8.0 12.0----30.05- 82.0 75.0----
2024-04-18 11:42 am S 5.1 11.1----30.06- 81.9 75.0----
2024-04-18 11:36 am S 8.9 15.0----30.06- 81.9 75.0----
2024-04-18 11:30 am S 11.1 14.0----30.06- 81.3 75.0----
2024-04-18 11:24 am S 12.0 14.0----30.06- 81.3 75.0----
2024-04-18 11:18 am S 8.0 15.0----30.06- 82.0 74.8----
2024-04-18 11:12 am S 8.0 14.0----30.06- 81.7 74.8----
2024-04-18 11:06 am S 8.0 12.0----30.06- 81.5 74.8----
2024-04-18 11:00 am S 7.0 13.0----30.06+0.02 81.7 74.8----
2024-04-18 10:54 am S 11.1 15.0----30.06- 81.1 74.7----
2024-04-18 10:48 am S 9.9 14.0----30.06- 81.0 74.7----
2024-04-18 10:42 am S 9.9 15.9----30.06- 81.1 74.7----
2024-04-18 10:36 am S 12.0 15.0----30.05- 80.8 74.7----
2024-04-18 10:30 am S 9.9 14.0----30.06- 81.0 74.7----
2024-04-18 10:24 amSSE 12.0 15.9----30.04- 80.1 74.7----
2024-04-18 10:18 am SE 14.0 15.9----30.03- 80.1 74.7----
2024-04-18 10:12 am SE 13.0 15.0----30.02- 79.9 74.7----
2024-04-18 10:06 am SE 13.0 15.9----30.02- 79.9 74.7----
2024-04-18 10:00 am SE 14.0 17.1----30.02+0.01 79.9 74.7----
2024-04-18 09:54 am SE 14.0 15.9----30.03- 79.9 74.5----
2024-04-18 09:48 amSSE 13.0 15.9------------
2024-04-18 09:42 am SE 14.0 15.9------------
2024-04-18 09:36 am SE 11.1 15.0------------
2024-04-18 09:30 am SE 13.0 17.1----30.03- 79.9 74.5----
2024-04-18 09:24 am SE 11.1 15.0----30.03- 79.9 74.5----
2024-04-18 09:18 am SE 12.0 15.0----30.02- 79.9 74.5----
2024-04-18 09:12 am SE 9.9 13.0----30.03- 79.9 74.5----
2024-04-18 09:06 am SE 11.1 13.0----30.03- 79.7 74.5----
2024-04-18 09:00 am SE 9.9 12.0----30.03+0.04 79.9 74.5----
2024-04-18 08:54 am SE 11.1 12.0----30.03- 79.9 74.5----
2024-04-18 08:48 amSSE 8.9 13.0----30.04- 79.7 74.5----
2024-04-18 08:42 amSSE 9.9 12.0----30.04- 79.7 74.5----
2024-04-18 08:36 amSSE 9.9 11.1----30.05- 79.7 74.5----
2024-04-18 08:30 amSSE 8.9 12.0----30.05- 79.7 74.5----
2024-04-18 08:24 amSSE 9.9 12.0----30.05- 79.7 74.5----
2024-04-18 08:18 amSSE 8.9 9.9----30.05- 79.7 74.5----
2024-04-18 08:12 amSSE 8.0 11.1----30.05- 79.7 74.5----
2024-04-18 08:06 amSSE 8.9 11.1----30.04- 79.7 74.5----
2024-04-18 08:00 amSSE 8.9 9.9----30.04+0.01 79.7 74.5----
2024-04-18 07:54 amSSE 8.0 11.1----30.04- 79.7 74.5----
2024-04-18 07:48 amSSE 9.9 13.0----30.03- 79.5 74.5----
2024-04-18 07:42 am SE 12.0 15.0----30.02- 79.7 74.5----
2024-04-18 07:36 am SE 12.0 15.0----30.02- 79.5 74.5----
2024-04-18 07:30 am SE 11.1 13.0----30.02- 79.5 74.5----
2024-04-18 07:24 am SE 12.0 14.0----30.02- 79.5 74.5----
2024-04-18 07:18 amSSE 11.1 13.0----30.02- 79.3 74.5----
2024-04-18 07:12 am SE 11.1 12.0----30.01- 79.2 74.5----
2024-04-18 07:06 am SE 9.9 13.0----30.01- 79.2 74.7----
2024-04-18 07:00 am SE 11.1 13.0----30.01-0.03 79.2 74.7----
2024-04-18 06:54 am SE 11.1 12.0----30.01- 79.2 74.7----
2024-04-18 06:48 am SE 8.9 12.0----30.01- 79.3 74.7----
2024-04-18 06:42 am SE 8.9 9.9----30.02- 79.3 74.7----
2024-04-18 06:36 am SE 8.0 11.1----30.02- 79.3 74.7----
2024-04-18 06:30 am SE 8.0 9.9----30.02- 79.3 74.7----
2024-04-18 06:24 am SE 8.0 9.9----30.02- 79.3 74.7----
2024-04-18 06:18 amSSE 8.9 11.1----30.02- 79.3 74.7----
2024-04-18 06:12 amESE 8.9 11.1----30.00- 79.2 74.7----
2024-04-18 06:06 amESE 8.9 11.1----30.00- 79.2 74.8----
2024-04-18 06:00 am E 8.9 9.9----30.00-0.03 79.0 74.8----
2024-04-18 05:54 am E 8.0 8.9----30.00- 79.0 74.8----
2024-04-18 05:48 am E 7.0 7.0----30.01- 78.8 74.8----
2024-04-18 05:42 am E 6.0 7.0----30.01- 79.0 74.8----
2024-04-18 05:36 amESE 7.0 7.0----30.01- 79.2 74.8----
2024-04-18 05:30 amESE 5.1 6.0----30.02- 79.0 74.8----
2024-04-18 05:24 am E 6.0 6.0----30.02- 79.0 74.8----
2024-04-18 05:18 am E 5.1 6.0----30.02- 79.2 74.8----
2024-04-18 05:12 am E 5.1 6.0----30.02- 79.3 74.8----
2024-04-18 05:06 am E 5.1 6.0----30.03- 79.2 74.8----
2024-04-18 05:00 am E 5.1 5.1----30.03+0.00 79.3 74.8----
2024-04-18 04:54 am E 4.1 5.1----30.03- 79.5 75.0----
2024-04-18 04:48 am E 5.1 5.1----30.03- 79.3 75.0----
2024-04-18 04:42 am E 2.9 4.1----30.03- 79.5 75.0----
2024-04-18 04:36 amESE 1.9 2.9----30.03- 79.9 75.0----
2024-04-18 04:30 am SE 1.9 2.9----30.03- 79.7 75.0----
2024-04-18 04:24 amSSE 1.0 2.9----30.03- 79.5 75.0----
2024-04-18 04:18 am S 1.0 1.9----30.03- 79.5 75.0----
2024-04-18 04:12 amSSE 1.0 1.9----30.04- 79.7 75.0----
2024-04-18 04:06 am SE 1.0 1.9----30.03- 79.5 75.0----
2024-04-18 04:00 am- 0.0 1.9----30.04+0.00 79.3 75.0----
2024-04-18 03:54 amWSW 1.0 1.9----30.05- 79.5 75.0----
2024-04-18 03:48 am S 1.9 4.1----30.04- 79.7 75.0----
2024-04-18 03:42 am S 1.9 2.9----30.04- 79.7 75.0----
2024-04-18 03:36 am S 2.9 4.1----30.04- 79.7 75.0----
2024-04-18 03:30 amSSE 4.1 5.1----30.03- 79.7 75.0----
2024-04-18 03:24 amSSE 4.1 5.1----30.03- 79.9 75.2----
2024-04-18 03:18 amSSE 5.1 6.0----30.03- 79.7 75.2----
2024-04-18 03:12 amSSE 5.1 6.0----30.03- 79.7 75.2----
2024-04-18 03:06 amSSE 4.1 6.0----30.03- 79.7 75.2----
2024-04-18 03:00 amSSE 5.1 7.0----30.03+0.00 79.7 75.2----
2024-04-18 02:54 amSSE 5.1 7.0----30.02- 79.7 75.2----
2024-04-18 02:48 amSSE 6.0 7.0----30.02- 79.7 75.2----
2024-04-18 02:42 am S 2.9 4.1----30.03- 79.7 75.2----
2024-04-18 02:36 am S 2.9 5.1----30.03- 79.7 75.2----
2024-04-18 02:30 am S 2.9 6.0----30.03- 79.7 75.2----
2024-04-18 02:24 amSSE 5.1 6.0----30.02- 79.7 75.2----
2024-04-18 02:18 am S 4.1 7.0----30.03- 79.7 75.2----
2024-04-18 02:12 am S 6.0 7.0----30.03- 79.7 75.2----
2024-04-18 02:06 am S 4.1 7.0----30.03- 79.7 75.2----
2024-04-18 02:00 am S 4.1 8.0----30.03+0.00 79.7 75.4----
2024-04-18 01:54 am S 6.0 8.0----30.03- 79.7 75.4----
2024-04-18 01:48 amSSE 7.0 8.0----30.02- 79.9 75.4----
2024-04-18 01:42 am S 5.1 7.0----30.03- 79.7 75.4----
2024-04-18 01:36 am S 6.0 7.0----30.03- 79.9 75.4----
2024-04-18 01:30 am S 5.1 6.0----30.03- 79.7 75.4----
2024-04-18 01:24 am S 4.1 6.0----30.03- 79.7 75.4----
2024-04-18 01:18 am S 5.1 6.0----30.03- 79.7 75.4----
2024-04-18 01:12 am S 4.1 4.1----30.03- 79.5 75.4----
2024-04-18 01:06 am S 1.9 4.1----30.04- 79.5 75.6----
2024-04-18 01:00 am S 2.9 4.1----30.03+0.00 79.7 75.6----
2024-04-18 12:54 am S 2.9 5.1----30.03- 79.7 75.6----
2024-04-18 12:48 am S 5.1 6.0----30.03- 79.9 75.6----
2024-04-18 12:42 am S 5.1 6.0----30.03- 80.1 75.6----
2024-04-18 12:36 amSSE 5.1 6.0----30.03- 80.1 75.7----
2024-04-18 12:30 am SE 5.1 6.0----30.02- 80.1 75.6----
2024-04-18 12:24 amSSE 5.1 6.0----30.03- 80.1 75.6----
2024-04-18 12:18 am SE 5.1 6.0----30.03- 80.1 75.6----
2024-04-18 12:12 amSSE 5.1 5.1----30.03- 80.1 75.6----
2024-04-18 12:06 amSSE 5.1 6.0----30.03- 80.1 75.6----
2024-04-18 12:00 am SE 5.1 6.0----30.03+0.01 80.1 75.6----
2024-04-17 11:54 pmSSE 5.1 6.0----30.03- 80.2 75.6----
2024-04-17 11:48 pmSSE 5.1 7.0----30.03- 80.1 75.6----
2024-04-17 11:42 pmSSE 4.1 5.1----30.03- 80.1 75.6----
2024-04-17 11:36 pm S 5.1 7.0----30.03- 79.9 75.6----
2024-04-17 11:30 pm S 5.1 8.0----30.03- 80.1 75.6----
2024-04-17 11:24 pm S 5.1 8.0----30.03- 80.1 75.6----
2024-04-17 11:18 pm S 6.0 8.9----30.03- 80.1 75.6----
2024-04-17 11:12 pm S 4.1 6.0----30.03- 80.1 75.6----
2024-04-17 11:06 pm S 5.1 7.0----30.03- 80.1 75.6----
2024-04-17 11:00 pm S 5.1 8.0----30.03+0.06 80.1 75.6----
2024-04-17 10:54 pm S 6.0 8.9----30.03- 80.1 75.6----
2024-04-17 10:48 pm S 6.0 8.9----30.03- 80.1 75.7----
2024-04-17 10:42 pm S 6.0 8.0----30.03- 80.1 75.7----
2024-04-17 10:36 pm S 5.1 8.0----30.03- 80.1 75.7----
2024-04-17 10:30 pm S 2.9 6.0----30.04- 80.1 75.7----
2024-04-17 10:24 pm S 5.1 8.0----30.04- 80.1 75.7----
2024-04-17 10:18 pm S 6.0 8.9----30.03- 80.1 75.7----
2024-04-17 10:12 pm S 7.0 8.9----30.03- 80.1 75.7----
2024-04-17 10:06 pm S 7.0 8.9----30.03- 80.1 75.7----
2024-04-17 10:00 pm S 5.1 8.0----30.03+0.03 80.1 75.7----
2024-04-17 09:54 pm S 5.1 8.0----30.03- 80.1 75.7----